Time,TemperatureF,DewpointF,PressureIn,WindDirection,WindDirectionDegrees,WindSpeedMPH,WindSpeedGustMPH,Humidity,HourlyPrecipIn,Conditions,Clouds,dailyrainin,SolarRadiationWatts/m^2,SoftwareType,DateUTC
2013-02-28 00:42:00,5.0,1.0,-100.00,East,87,1.0,2.0,82,0.00,,,0.00,0.000000,,2013-02-28 07:42:00,
2013-02-28 00:52:00,5.0,1.0,-100.00,East,87,1.0,2.0,82,0.00,,,0.00,0.000000,,2013-02-28 07:52:00,
2013-02-28 01:42:00,4.0,1.0,-100.00,NNW,331,1.0,2.0,87,0.00,,,0.00,0.000000,,2013-02-28 08:42:00,
2013-02-28 01:53:00,4.0,1.0,-100.00,NNW,331,1.0,2.0,87,0.00,,,0.00,0.000000,,2013-02-28 08:53:00,
2013-02-28 02:03:00,4.0,1.0,-100.00,NNW,331,1.0,2.0,87,0.00,,,0.00,0.000000,,2013-02-28 09:03:00,
2013-02-28 02:42:00,2.0,-1.0,-100.00,WSW,257,2.0,2.0,88,0.00,,,0.00,0.000000,,2013-02-28 09:42:00,
2013-02-28 02:52:00,2.0,-1.0,-100.00,WSW,257,2.0,2.0,88,0.00,,,0.00,0.000000,,2013-02-28 09:52:00,
2013-02-28 03:02:00,2.0,-1.0,-100.00,WSW,257,2.0,2.0,88,0.00,,,0.00,0.000000,,2013-02-28 10:02:00,
2013-02-28 03:11:00,2.0,-1.0,-100.00,WSW,257,2.0,2.0,88,0.00,,,0.00,0.000000,,2013-02-28 10:11:00,
2013-02-28 03:21:00,2.0,-1.0,-100.00,WSW,257,2.0,2.0,88,0.00,,,0.00,0.000000,,2013-02-28 10:21:00,
2013-02-28 03:42:00,0.0,-2.0,-100.00,West,260,1.0,2.0,90,0.00,,,0.00,0.000000,,2013-02-28 10:42:00,
2013-02-28 03:52:00,0.0,-2.0,-100.00,West,260,1.0,2.0,90,0.00,,,0.00,0.000000,,2013-02-28 10:52:00,
2013-02-28 04:02:00,0.0,-99.9,-100.00,West,260,1.0,2.0,90,0.00,,,0.00,0.000000,,2013-02-28 11:02:00,
2013-02-28 04:11:00,0.0,-2.0,-100.00,West,260,1.0,2.0,90,0.00,,,0.00,0.000000,,2013-02-28 11:11:00,
2013-02-28 04:21:00,0.0,-2.0,-100.00,West,260,1.0,2.0,90,0.00,,,0.00,0.000000,,2013-02-28 11:21:00,
2013-02-28 04:42:00,-1.0,-3.0,-100.00,SE,134,0.0,2.0,92,0.00,,,0.00,0.000000,,2013-02-28 11:42:00,
2013-02-28 04:52:00,-1.0,-3.0,-100.00,SE,134,0.0,2.0,92,0.00,,,0.00,0.000000,,2013-02-28 11:52:00,
2013-02-28 05:02:00,-1.0,-3.0,-100.00,SE,134,0.0,2.0,92,0.00,,,0.00,0.000000,,2013-02-28 12:02:00,
2013-02-28 05:11:00,-1.0,-3.0,-100.00,SE,134,0.0,2.0,92,0.00,,,0.00,0.000000,,2013-02-28 12:11:00,
2013-02-28 05:21:00,-1.0,-3.0,-100.00,SE,134,0.0,2.0,92,0.00,,,0.00,0.000000,,2013-02-28 12:21:00,
2013-02-28 05:42:00,-1.0,-3.0,-100.00,North,1,0.0,2.0,90,-99.99,,,0.00,0.000000,,2013-02-28 12:42:00,
2013-02-28 05:52:00,-1.0,-3.0,-100.00,North,1,0.0,2.0,90,-99.99,,,0.00,0.000000,,2013-02-28 12:52:00,
2013-02-28 06:11:00,-1.0,-3.0,-100.00,North,1,0.0,2.0,90,0.00,,,0.00,0.000000,,2013-02-28 13:11:00,
2013-02-28 06:21:00,-1.0,-3.0,-100.00,North,1,0.0,2.0,90,0.00,,,0.00,0.000000,,2013-02-28 13:21:00,
2013-02-28 06:22:00,-2.0,-4.0,-100.00,ENE,73,1.0,2.0,91,0.00,,,0.00,0.000000,,2013-02-28 13:22:00,
2013-02-28 06:42:00,-2.0,-4.0,-100.00,ENE,73,1.0,2.0,91,0.00,,,0.00,0.000000,,2013-02-28 13:42:00,
2013-02-28 06:52:00,-2.0,-4.0,-100.00,ENE,73,1.0,2.0,91,0.00,,,0.00,0.000000,,2013-02-28 13:52:00,
2013-02-28 07:01:00,-2.0,-4.0,-100.00,ENE,73,1.0,2.0,91,0.00,,,0.00,0.000000,,2013-02-28 14:01:00,
2013-02-28 07:11:00,-2.0,-4.0,-100.00,ENE,73,1.0,2.0,91,0.00,,,0.00,0.000000,,2013-02-28 14:11:00,
2013-02-28 07:42:00,3.0,-1.0,-100.00,NNE,18,0.0,2.0,84,0.00,,,0.00,30.000000,,2013-02-28 14:42:00,
2013-02-28 07:52:00,3.0,-1.0,-100.00,NNE,18,0.0,2.0,84,0.00,,,0.00,30.000000,,2013-02-28 14:52:00,
2013-02-28 08:02:00,3.0,-1.0,-100.00,NNE,18,0.0,2.0,84,0.00,,,0.00,30.000000,,2013-02-28 15:02:00,
2013-02-28 08:11:00,3.0,-1.0,-100.00,NNE,18,0.0,2.0,84,0.00,,,0.00,30.000000,,2013-02-28 15:11:00,
2013-02-28 08:21:00,3.0,-1.0,-100.00,NNE,18,0.0,2.0,84,0.00,,,0.00,30.000000,,2013-02-28 15:21:00,
2013-02-28 08:22:00,7.0,-2.0,-100.00,ENE,63,1.0,2.0,66,0.00,,,0.00,241.000000,,2013-02-28 15:22:00,
2013-02-28 08:42:00,7.0,-2.0,-100.00,ENE,63,1.0,2.0,66,0.00,,,0.00,241.000000,,2013-02-28 15:42:00,
2013-02-28 08:52:00,7.0,-2.0,-100.00,ENE,63,1.0,2.0,66,0.00,,,0.00,241.000000,,2013-02-28 15:52:00,
2013-02-28 09:02:00,7.0,-2.0,-100.00,ENE,63,1.0,2.0,66,0.00,,,0.00,241.000000,,2013-02-28 16:02:00,
2013-02-28 09:11:00,7.0,-2.0,-100.00,ENE,63,1.0,2.0,66,0.00,,,0.00,241.000000,,2013-02-28 16:11:00,
2013-02-28 09:43:00,14.0,-2.0,-100.00,WSW,251,2.0,2.0,47,0.00,,,0.00,466.000000,,2013-02-28 16:43:00,
2013-02-28 09:52:00,14.0,-2.0,-100.00,WSW,251,2.0,2.0,47,0.00,,,0.00,466.000000,,2013-02-28 16:52:00,
2013-02-28 10:02:00,14.0,-2.0,-100.00,WSW,251,2.0,2.0,47,0.00,,,0.00,466.000000,,2013-02-28 17:02:00,
2013-02-28 10:11:00,14.0,-2.0,-100.00,WSW,251,2.0,2.0,47,0.00,,,0.00,466.000000,,2013-02-28 17:11:00,
2013-02-28 10:21:00,14.0,-2.0,-100.00,WSW,251,2.0,2.0,47,0.00,,,0.00,466.000000,,2013-02-28 17:21:00,
2013-02-28 10:22:00,11.0,-3.0,-100.00,WSW,253,2.0,3.0,53,0.00,,,0.00,686.000000,,2013-02-28 17:22:00,
2013-02-28 10:42:00,11.0,-3.0,-100.00,WSW,253,2.0,3.0,53,0.00,,,0.00,686.000000,,2013-02-28 17:42:00,
2013-02-28 10:53:00,11.0,-3.0,-100.00,WSW,253,2.0,3.0,53,0.00,,,0.00,686.000000,,2013-02-28 17:53:00,
2013-02-28 11:02:00,11.0,-3.0,-100.00,WSW,253,2.0,3.0,53,0.00,,,0.00,686.000000,,2013-02-28 18:02:00,
2013-02-28 11:11:00,11.0,-3.0,-100.00,WSW,253,2.0,3.0,53,0.00,,,0.00,686.000000,,2013-02-28 18:11:00,
2013-02-28 11:42:00,16.0,-1.0,-100.00,West,269,2.0,2.0,47,0.00,,,0.00,836.000000,,2013-02-28 18:42:00,
2013-02-28 11:52:00,16.0,-1.0,-100.00,West,269,2.0,2.0,47,0.00,,,0.00,836.000000,,2013-02-28 18:52:00,
2013-02-28 12:02:00,16.0,-1.0,-100.00,West,269,2.0,2.0,47,0.00,,,0.00,836.000000,,2013-02-28 19:02:00,
2013-02-28 12:11:00,16.0,-1.0,-100.00,West,269,2.0,2.0,47,0.00,,,0.00,836.000000,,2013-02-28 19:11:00,
2013-02-28 12:21:00,16.0,-1.0,-100.00,West,269,2.0,2.0,47,0.00,,,0.00,836.000000,,2013-02-28 19:21:00,
2013-02-28 12:42:00,25.0,-2.0,-100.00,NW,317,2.0,2.0,30,0.00,,,0.00,913.000000,,2013-02-28 19:42:00,
2013-02-28 12:52:00,25.0,-2.0,-100.00,NW,317,2.0,2.0,30,0.00,,,0.00,913.000000,,2013-02-28 19:52:00,
2013-02-28 13:01:00,25.0,-2.0,-100.00,NW,317,2.0,2.0,30,0.00,,,0.00,913.000000,,2013-02-28 20:01:00,
2013-02-28 13:12:00,25.0,-2.0,-100.00,NW,317,2.0,2.0,30,0.00,,,0.00,913.000000,,2013-02-28 20:12:00,
2013-02-28 13:21:00,25.0,-2.0,-100.00,NW,317,2.0,2.0,30,0.00,,,0.00,913.000000,,2013-02-28 20:21:00,
2013-02-28 13:22:00,19.0,-1.0,-100.00,West,270,2.0,3.0,40,0.00,,,0.00,912.000000,,2013-02-28 20:22:00,
2013-02-28 13:42:00,19.0,-1.0,-100.00,West,270,2.0,3.0,40,0.00,,,0.00,912.000000,,2013-02-28 20:42:00,
2013-02-28 13:52:00,19.0,-1.0,-100.00,West,270,2.0,3.0,40,0.00,,,0.00,912.000000,,2013-02-28 20:52:00,
2013-02-28 14:02:00,19.0,-1.0,-100.00,West,270,2.0,3.0,40,0.00,,,0.00,912.000000,,2013-02-28 21:02:00,
2013-02-28 14:11:00,19.0,-1.0,-100.00,West,270,2.0,3.0,40,0.00,,,0.00,912.000000,,2013-02-28 21:11:00,
2013-02-28 14:22:00,15.0,1.0,-100.00,West,269,3.0,4.0,53,0.00,,,0.00,839.000000,,2013-02-28 21:22:00,
2013-02-28 14:52:00,15.0,1.0,-100.00,West,269,3.0,4.0,53,0.00,,,0.00,839.000000,,2013-02-28 21:52:00,
2013-02-28 15:01:00,15.0,1.0,-100.00,West,269,3.0,4.0,53,0.00,,,0.00,839.000000,,2013-02-28 22:01:00,
2013-02-28 15:11:00,15.0,1.0,-100.00,West,269,3.0,4.0,53,0.00,,,0.00,839.000000,,2013-02-28 22:11:00,
2013-02-28 15:22:00,17.0,3.0,-100.00,West,264,3.0,6.0,53,0.00,,,0.00,693.000000,,2013-02-28 22:22:00,
2013-02-28 15:42:00,17.0,3.0,-100.00,West,264,3.0,6.0,53,0.00,,,0.00,693.000000,,2013-02-28 22:42:00,
2013-02-28 15:52:00,17.0,3.0,-100.00,West,264,3.0,6.0,53,0.00,,,0.00,693.000000,,2013-02-28 22:52:00,
2013-02-28 16:01:00,17.0,3.0,-100.00,West,264,3.0,6.0,53,0.00,,,0.00,693.000000,,2013-02-28 23:01:00,
2013-02-28 16:11:00,17.0,3.0,-100.00,West,264,3.0,6.0,53,0.00,,,0.00,693.000000,,2013-02-28 23:11:00,
2013-02-28 16:22:00,16.0,4.0,-100.00,West,259,4.0,5.0,59,0.00,,,0.00,391.000000,,2013-02-28 23:22:00,
2013-02-28 16:42:00,16.0,4.0,-100.00,West,259,4.0,5.0,59,0.00,,,0.00,391.000000,,2013-02-28 23:42:00,
2013-02-28 16:53:00,16.0,4.0,-100.00,West,259,4.0,5.0,59,0.00,,,0.00,391.000000,,2013-02-28 23:53:00,
2013-02-28 17:01:00,16.0,4.0,-100.00,West,259,4.0,5.0,59,0.00,,,0.00,391.000000,,2013-03-01 00:01:00,
2013-02-28 17:11:00,16.0,4.0,-100.00,West,259,4.0,5.0,59,0.00,,,0.00,391.000000,,2013-03-01 00:11:00,
2013-02-28 17:42:00,16.0,5.0,-100.00,West,265,3.0,6.0,60,0.00,,,0.00,213.000000,,2013-03-01 00:42:00,
2013-02-28 17:52:00,16.0,5.0,-100.00,West,265,3.0,6.0,60,0.00,,,0.00,213.000000,,2013-03-01 00:52:00,
2013-02-28 18:01:00,16.0,5.0,-100.00,West,265,3.0,6.0,60,0.00,,,0.00,213.000000,,2013-03-01 01:01:00,
2013-02-28 18:11:00,16.0,5.0,-100.00,West,265,3.0,6.0,60,0.00,,,0.00,213.000000,,2013-03-01 01:11:00,
2013-02-28 18:21:00,16.0,5.0,-100.00,West,265,3.0,6.0,60,0.00,,,0.00,213.000000,,2013-03-01 01:21:00,
2013-02-28 18:42:00,15.0,5.0,-100.00,West,278,4.0,6.0,65,0.00,,,0.00,27.000000,,2013-03-01 01:42:00,
2013-02-28 18:52:00,15.0,5.0,-100.00,West,278,4.0,6.0,65,0.00,,,0.00,27.000000,,2013-03-01 01:52:00,
2013-02-28 19:01:00,15.0,5.0,-100.00,West,278,4.0,6.0,65,0.00,,,0.00,27.000000,,2013-03-01 02:01:00,
2013-02-28 19:11:00,15.0,5.0,-100.00,West,278,4.0,6.0,65,0.00,,,0.00,27.000000,,2013-03-01 02:11:00,
2013-02-28 19:21:00,15.0,5.0,-100.00,West,278,4.0,6.0,65,0.00,,,0.00,27.000000,,2013-03-01 02:21:00,
2013-02-28 19:42:00,13.0,5.0,-100.00,West,269,3.0,6.0,70,0.00,,,0.00,0.000000,,2013-03-01 02:42:00,
2013-02-28 19:52:00,13.0,5.0,-100.00,West,269,3.0,6.0,70,0.00,,,0.00,0.000000,,2013-03-01 02:52:00,
2013-02-28 20:02:00,13.0,5.0,-100.00,West,269,3.0,6.0,70,0.00,,,0.00,0.000000,,2013-03-01 03:02:00,
2013-02-28 20:11:00,13.0,5.0,-100.00,West,269,3.0,6.0,70,0.00,,,0.00,0.000000,,2013-03-01 03:11:00,
2013-02-28 20:21:00,13.0,5.0,-100.00,West,269,3.0,6.0,70,0.00,,,0.00,0.000000,,2013-03-01 03:21:00,
2013-02-28 20:42:00,13.0,4.0,-100.00,WNW,300,2.0,5.0,67,0.00,,,0.00,0.000000,,2013-03-01 03:42:00,
2013-02-28 20:52:00,13.0,4.0,-100.00,WNW,300,2.0,5.0,67,0.00,,,0.00,0.000000,,2013-03-01 03:52:00,
2013-02-28 21:01:00,13.0,4.0,-100.00,WNW,300,2.0,5.0,67,0.00,,,0.00,0.000000,,2013-03-01 04:01:00,
2013-02-28 21:11:00,13.0,4.0,-100.00,WNW,300,2.0,5.0,67,0.00,,,0.00,0.000000,,2013-03-01 04:11:00,
2013-02-28 21:21:00,13.0,4.0,-100.00,WNW,300,2.0,5.0,67,0.00,,,0.00,0.000000,,2013-03-01 04:21:00,
2013-02-28 21:22:00,16.0,4.0,-100.00,WSW,247,4.0,9.0,58,0.00,,,0.00,0.000000,,2013-03-01 04:22:00,
2013-02-28 21:42:00,16.0,4.0,-100.00,WSW,247,4.0,9.0,58,0.00,,,0.00,0.000000,,2013-03-01 04:42:00,
2013-02-28 21:52:00,16.0,4.0,-100.00,WSW,247,4.0,9.0,58,0.00,,,0.00,0.000000,,2013-03-01 04:52:00,
2013-02-28 22:02:00,16.0,4.0,-100.00,WSW,247,4.0,9.0,58,0.00,,,0.00,0.000000,,2013-03-01 05:02:00,
2013-02-28 22:11:00,16.0,4.0,-100.00,WSW,247,4.0,9.0,58,0.00,,,0.00,0.000000,,2013-03-01 05:11:00,
2013-02-28 22:42:00,16.0,3.0,-100.00,WSW,258,3.0,9.0,57,0.00,,,0.00,0.000000,,2013-03-01 05:42:00,
2013-02-28 22:53:00,16.0,3.0,-100.00,WSW,258,3.0,9.0,57,0.00,,,0.00,0.000000,,2013-03-01 05:53:00,
2013-02-28 23:02:00,16.0,3.0,-100.00,WSW,258,3.0,9.0,57,0.00,,,0.00,0.000000,,2013-03-01 06:02:00,
2013-02-28 23:11:00,16.0,3.0,-100.00,WSW,258,3.0,9.0,57,0.00,,,0.00,0.000000,,2013-03-01 06:11:00,
2013-02-28 23:21:00,16.0,3.0,-100.00,WSW,258,3.0,9.0,57,0.00,,,0.00,0.000000,,2013-03-01 06:21:00,
2013-02-28 23:22:00,16.0,6.0,-100.00,West,279,4.0,9.0,65,0.00,,,0.00,0.000000,,2013-03-01 06:22:00,
2013-02-28 23:42:00,16.0,6.0,-100.00,West,279,4.0,9.0,65,0.00,,,0.00,0.000000,,2013-03-01 06:42:00,
2013-02-28 23:53:00,16.0,6.0,-100.00,West,279,4.0,9.0,65,0.00,,,0.00,0.000000,,2013-03-01 06:53:00,